Tracking 23612 objects as of 17-Sep-2021
HD Live streaming from Space Station
objects crossing your sky now
Track INSPIRATION-4

INTERCOSMOS 25

Track INTERCOSMOS 25 now!
10-day predictions
INTERCOSMOS 25 is classified as:


NORAD ID: 21819
Int'l Code: 1991-086A
Perigee: 445.5 km
Apogee: 2,883.0 km
Inclination: 82.6 °
Period: 119.5 minutes
Semi major axis: 8035 km
RCS: 7.3989 m2 (large)
Launch date: December 18, 1991
Source: Commonwealth of Independent States (former USSR) (CIS)
Launch site: PLESETSK MISSILE AND SPACE COMPLEX (PKMTR)
aabbcc
Your satellite tracking list
Your tracking list is empty




NASA's NSSDC Master Catalog

Two Line Element Set (TLE):
1 21819U 91086A   21259.58318215  .00001086  00000-0  21413-3 0  9996
2 21819  82.5858 212.9294 1516757  19.9605 345.4748 12.05322713299236
Source of the keplerian elements: AFSPC